• In Switzerland
  • List of Countries
  • For 7 days
  • Water Temperature
  • Satellite Maps
  • Weather Map
  • Weather Widgets
  • user-avatar
    Login

    Hourly Weather Thimphu

    Today, 21 October, Sunday

    Time Temperature Precipitation Wind Pressure Humidity
    00:00 +3°C° 0 mm 2 mps 524 mmHg 81%
    01:00 +3°C° 0 mm 2 mps 524 mmHg 80%
    02:00 +3°C° 0 mm 2 mps 524 mmHg 78%
    03:00 +3°C° 0 mm 2 mps 524 mmHg 77%
    04:00 +3°C° 0 mm 2 mps 524 mmHg 75%
    05:00 +2°C° 0 mm 2 mps 524 mmHg 72%
    06:00 +2°C° 0 mm 2 mps 524 mmHg 70%
    07:00 +5°C° 0 mm 2 mps 526 mmHg 62%
    08:00 +8°C° 0 mm 2 mps 528 mmHg 54%
    09:00 +12°C° 0 mm 1 mps 530 mmHg 46%
    10:00 +13°C° 0 mm 2 mps 530 mmHg 44%
    11:00 +14°C° 0 mm 2 mps 530 mmHg 43%
    12:00 +13°C° 0 mm 3 mps 530 mmHg 50%
    13:00 +12°C° 0.1 mm 3 mps 529 mmHg 55%
    14:00 +11°C° 0.1 mm 3 mps 528 mmHg 59%
    15:00 +11°C° 0.1 mm 3 mps 527 mmHg 64%
    16:00 +9°C° 0.1 mm 2 mps 526 mmHg 74%
    17:00 +7°C° 0.1 mm 2 mps 525 mmHg 83%
    18:00 +7°C° 0.1 mm 1 mps 524 mmHg 93%
    19:00 +6°C° 0 mm 1 mps 525 mmHg 91%
    20:00 +5°C° 0 mm 2 mps 525 mmHg 89%
    21:00 +4°C° 0 mm 2 mps 525 mmHg 87%
    22:00 +4°C° 0 mm 2 mps 525 mmHg 85%
    23:00 +4°C° 0 mm 2 mps 524 mmHg 83%

    Tomorrow, 22 October, Monday

    Time Temperature Precipitation Wind Pressure Humidity
    00:00 +3°C° 0 mm 2 mps 524 mmHg 82%
    01:00 +3°C° 0 mm 2 mps 524 mmHg 80%
    02:00 +3°C° 0 mm 2 mps 523 mmHg 79%
    03:00 +2°C° 0 mm 2 mps 523 mmHg 78%
    04:00 +2°C° 0 mm 2 mps 523 mmHg 76%
    05:00 +2°C° 0 mm 2 mps 523 mmHg 74%
    06:00 +2°C° 0 mm 2 mps 523 mmHg 72%
    07:00 +5°C° 0 mm 2 mps 525 mmHg 63%
    08:00 +7°C° 0 mm 2 mps 527 mmHg 53%
    09:00 +10°C° 0 mm 2 mps 529 mmHg 44%
    10:00 +12°C° 0 mm 2 mps 529 mmHg 43%
    11:00 +12°C° 0 mm 3 mps 529 mmHg 42%
    12:00 +13°C° 0 mm 3 mps 529 mmHg 42%
    13:00 +12°C° 0.1 mm 3 mps 528 mmHg 48%
    14:00 +11°C° 0.1 mm 3 mps 527 mmHg 54%
    15:00 +10°C° 0.1 mm 3 mps 526 mmHg 60%
    16:00 +8°C° 0.1 mm 2 mps 525 mmHg 71%
    17:00 +7°C° 0.1 mm 2 mps 524 mmHg 82%
    18:00 +6°C° 0.1 mm 1 mps 523 mmHg 93%
    19:00 +5°C° 0 mm 1 mps 523 mmHg 91%
    20:00 +5°C° 0 mm 1 mps 524 mmHg 89%
    21:00 +4°C° 0 mm 2 mps 524 mmHg 88%
    22:00 +3°C° 0 mm 2 mps 524 mmHg 86%
    23:00 +3°C° 0 mm 2 mps 523 mmHg 83%

    Day after tomorrow, 23 October, Tuesday

    Time Temperature Precipitation Wind Pressure Humidity
    00:00 +2°C° 0 mm 2 mps 523 mmHg 81%
    01:00 +2°C° 0 mm 2 mps 523 mmHg 79%
    02:00 +2°C° 0 mm 2 mps 522 mmHg 77%
    03:00 +1°C° 0 mm 2 mps 522 mmHg 75%
    04:00 +1°C° 0 mm 2 mps 522 mmHg 73%
    05:00 +1°C° 0 mm 2 mps 522 mmHg 71%
    06:00 +1°C° 0 mm 2 mps 522 mmHg 69%
    07:00 +4°C° 0 mm 2 mps 524 mmHg 61%
    08:00 +6°C° 0 mm 2 mps 526 mmHg 52%
    09:00 +9°C° 0 mm 2 mps 528 mmHg 44%
    10:00 +10°C° 0 mm 2 mps 528 mmHg 43%
    11:00 +11°C° 0 mm 3 mps 528 mmHg 42%
    12:00 +12°C° 0 mm 3 mps 528 mmHg 42%
    13:00 +11°C° 0.1 mm 3 mps 527 mmHg 47%
    14:00 +10°C° 0.1 mm 3 mps 526 mmHg 53%
    15:00 +10°C° 0.1 mm 3 mps 525 mmHg 59%
    16:00 +8°C° 0.1 mm 2 mps 525 mmHg 70%
    17:00 +6°C° 0.1 mm 2 mps 524 mmHg 80%
    18:00 +5°C° 0.1 mm 1 mps 523 mmHg 91%
    19:00 +4°C° 0 mm 2 mps 523 mmHg 90%
    20:00 +4°C° 0 mm 2 mps 524 mmHg 88%
    21:00 +3°C° 0 mm 2 mps 524 mmHg 87%
    22:00 +3°C° 0 mm 2 mps 524 mmHg 85%
    23:00 +2°C° 0 mm 2 mps 523 mmHg 83%

    24 October, Wednesday

    Time Temperature Precipitation Wind Pressure Humidity
    00:00 +2°C° 0 mm 2 mps 523 mmHg 81%
    01:00 +2°C° 0 mm 2 mps 523 mmHg 79%
    02:00 +2°C° 0 mm 2 mps 522 mmHg 77%
    03:00 +1°C° 0 mm 2 mps 522 mmHg 75%
    04:00 +1°C° 0 mm 2 mps 522 mmHg 73%
    05:00 +1°C° 0 mm 2 mps 522 mmHg 72%
    06:00 +1°C° 0 mm 2 mps 522 mmHg 70%
    07:00 +3°C° 0 mm 2 mps 524 mmHg 61%
    08:00 +6°C° 0 mm 2 mps 526 mmHg 52%
    09:00 +9°C° 0 mm 2 mps 528 mmHg 43%
    10:00 +10°C° 0 mm 2 mps 528 mmHg 42%
    11:00 +11°C° 0 mm 3 mps 528 mmHg 41%
    12:00 +12°C° 0 mm 3 mps 528 mmHg 40%
    13:00 +11°C° 0 mm 3 mps 528 mmHg 44%
    14:00 +11°C° 0 mm 3 mps 527 mmHg 48%
    15:00 +10°C° 0 mm 3 mps 526 mmHg 52%
    16:00 +8°C° 0 mm 3 mps 525 mmHg 64%
    17:00 +6°C° 0 mm 2 mps 524 mmHg 77%
    18:00 +5°C° 0 mm 1 mps 523 mmHg 89%
    19:00 +3°C° 0 mm 2 mps 523 mmHg 86%
    20:00 +3°C° 0 mm 2 mps 524 mmHg 84%
    21:00 +2°C° 0 mm 2 mps 524 mmHg 81%
    22:00 +2°C° 0 mm 2 mps 524 mmHg 78%
    23:00 +2°C° 0 mm 2 mps 524 mmHg 75%

    25 October, Thursday

    Time Temperature Precipitation Wind Pressure Humidity
    00:00 +1°C° 0 mm 2 mps 524 mmHg 71%
    01:00 +1°C° 0 mm 2 mps 523 mmHg 68%
    02:00 +1°C° 0 mm 2 mps 523 mmHg 64%
    03:00 +1°C° 0 mm 2 mps 523 mmHg 61%
    04:00 -1°C° 0 mm 2 mps 523 mmHg 57%
    05:00 -1°C° 0 mm 2 mps 523 mmHg 54%
    06:00 -1°C° 0 mm 2 mps 524 mmHg 51%
    07:00 +3°C° 0 mm 2 mps 526 mmHg 43%
    08:00 +7°C° 0 mm 1 mps 528 mmHg 35%
    09:00 +10°C° 0 mm 1 mps 530 mmHg 27%
    10:00 +10°C° 0 mm 2 mps 530 mmHg 27%
    11:00 +12°C° 0 mm 2 mps 530 mmHg 27%
    12:00 +12°C° 0 mm 3 mps 530 mmHg 27%
    13:00 +12°C° 0 mm 3 mps 530 mmHg 31%
    14:00 +11°C° 0 mm 3 mps 529 mmHg 35%
    15:00 +11°C° 0 mm 3 mps 528 mmHg 39%
    16:00 +8°C° 0 mm 2 mps 527 mmHg 51%
    17:00 +6°C° 0 mm 2 mps 526 mmHg 64%
    18:00 +4°C° 0 mm 1 mps 524 mmHg 77%
    19:00 +4°C° 0 mm 1 mps 525 mmHg 75%
    20:00 +3°C° 0 mm 1 mps 525 mmHg 72%
    21:00 +2°C° 0 mm 2 mps 525 mmHg 70%
    22:00 +2°C° 0 mm 2 mps 525 mmHg 68%
    23:00 +2°C° 0 mm 2 mps 525 mmHg 65%

    26 October, Friday

    Time Temperature Precipitation Wind Pressure Humidity
    00:00 +2°C° 0 mm 2 mps 525 mmHg 62%
    01:00 +1°C° 0 mm 2 mps 525 mmHg 60%
    02:00 +1°C° 0 mm 2 mps 524 mmHg 57%
    03:00 +1°C° 0 mm 2 mps 524 mmHg 54%
    04:00 +1°C° 0 mm 2 mps 524 mmHg 51%
    05:00 +1°C° 0 mm 2 mps 525 mmHg 48%
    06:00 +1°C° 0 mm 2 mps 525 mmHg 46%
    07:00 +4°C° 0 mm 2 mps 527 mmHg 39%
    08:00 +7°C° 0 mm 2 mps 529 mmHg 31%
    09:00 +11°C° 0 mm 1 mps 531 mmHg 24%
    10:00 +12°C° 0 mm 2 mps 531 mmHg 24%
    11:00 +13°C° 0 mm 2 mps 531 mmHg 24%
    12:00 +13°C° 0 mm 3 mps 531 mmHg 24%
    13:00 +12°C° 0 mm 3 mps 530 mmHg 28%
    14:00 +12°C° 0 mm 3 mps 530 mmHg 32%
    15:00 +11°C° 0 mm 3 mps 529 mmHg 35%
    16:00 +9°C° 0 mm 2 mps 527 mmHg 47%
    17:00 +6°C° 0 mm 2 mps 526 mmHg 60%
    18:00 +4°C° 0 mm 1 mps 525 mmHg 72%
    19:00 +4°C° 0 mm 1 mps 525 mmHg 70%
    20:00 +2°C° 0 mm 2 mps 525 mmHg 68%
    21:00 +2°C° 0 mm 2 mps 525 mmHg 66%
    22:00 +2°C° 0 mm 2 mps 525 mmHg 63%
    23:00 +2°C° 0 mm 2 mps 525 mmHg 61%
    Show more